When you browse on this site, cookies collect data to enhance your experience and personalize the content and advertising you see.
Visit our Privacy Policy to learn more. By continuing to use the site, you agree to this use of cookies and data.
  • In Austria
  • List of Countries
  • For 7 days
  • Water Temperature
  • Weather Map
  • News
  • Weather Widgets
  • user-avatar
    Login

    Hourly Weather Molango

    Today, 17 August, Saturday

    Time Temperature Precipitation Wind Pressure Humidity
    00:00 +15°C° 0 mm 1 mps 610 mmHg 83%
    01:00 +15°C° 0 mm 1 mps 610 mmHg 81%
    02:00 +15°C° 0 mm 1 mps 609 mmHg 80%
    03:00 +14°C° 0 mm 1 mps 609 mmHg 80%
    04:00 +14°C° 0 mm 1 mps 609 mmHg 80%
    05:00 +14°C° 0 mm 1 mps 609 mmHg 80%
    06:00 +16°C° 0 mm 1 mps 610 mmHg 72%
    07:00 +18°C° 0 mm 0 mps 612 mmHg 65%
    08:00 +20°C° 0 mm 0 mps 613 mmHg 57%
    09:00 +24°C° 0 mm 1 mps 613 mmHg 55%
    10:00 +25°C° 0 mm 1 mps 613 mmHg 52%
    11:00 +26°C° 0 mm 2 mps 613 mmHg 50%
    12:00 +26°C° 0 mm 2 mps 612 mmHg 53%
    13:00 +26°C° 0 mm 2 mps 612 mmHg 57%
    14:00 +25°C° 0 mm 3 mps 611 mmHg 60%
    15:00 +24°C° 0.1 mm 2 mps 611 mmHg 65%
    16:00 +23°C° 0.1 mm 2 mps 610 mmHg 70%
    17:00 +21°C° 0.1 mm 2 mps 610 mmHg 75%
    18:00 +21°C° 0 mm 1 mps 610 mmHg 81%
    19:00 +19°C° 0 mm 1 mps 610 mmHg 87%
    20:00 +16°C° 0 mm 1 mps 610 mmHg 93%
    21:00 +16°C° 0 mm 1 mps 610 mmHg 93%
    22:00 +16°C° 0 mm 1 mps 610 mmHg 93%
    23:00 +15°C° 0 mm 1 mps 610 mmHg 93%

    Tomorrow, 18 August, Sunday

    Time Temperature Precipitation Wind Pressure Humidity
    00:00 +15°C° 0 mm 1 mps 609 mmHg 92%
    01:00 +14°C° 0 mm 0 mps 609 mmHg 92%
    02:00 +13°C° 0 mm 0 mps 609 mmHg 92%
    03:00 +13°C° 0 mm 0 mps 609 mmHg 92%
    04:00 +13°C° 0 mm 0 mps 609 mmHg 93%
    05:00 +13°C° 0 mm 0 mps 609 mmHg 93%
    06:00 +15°C° 0 mm 0 mps 610 mmHg 86%
    07:00 +17°C° 0 mm 0 mps 611 mmHg 78%
    08:00 +19°C° 0 mm 0 mps 612 mmHg 71%
    09:00 +23°C° 0 mm 1 mps 612 mmHg 66%
    10:00 +24°C° 0 mm 1 mps 612 mmHg 61%
    11:00 +25°C° 0 mm 2 mps 612 mmHg 56%
    12:00 +25°C° 0 mm 2 mps 612 mmHg 59%
    13:00 +25°C° 0 mm 2 mps 611 mmHg 62%
    14:00 +24°C° 0 mm 3 mps 610 mmHg 65%
    15:00 +23°C° 0 mm 2 mps 610 mmHg 69%
    16:00 +21°C° 0 mm 2 mps 610 mmHg 73%
    17:00 +21°C° 0 mm 2 mps 609 mmHg 77%
    18:00 +20°C° 0 mm 1 mps 609 mmHg 84%
    19:00 +18°C° 0 mm 1 mps 610 mmHg 90%
    20:00 +15°C° 0 mm 0 mps 610 mmHg 96%
    21:00 +15°C° 0 mm 0 mps 610 mmHg 96%
    22:00 +15°C° 0 mm 0 mps 610 mmHg 96%
    23:00 +14°C° 0 mm 0 mps 610 mmHg 96%

    Day after tomorrow, 19 August, Monday

    Time Temperature Precipitation Wind Pressure Humidity
    00:00 +14°C° 0 mm 0 mps 609 mmHg 96%
    01:00 +14°C° 0 mm 0 mps 609 mmHg 96%
    02:00 +14°C° 0 mm 0 mps 609 mmHg 95%
    03:00 +14°C° 0.2 mm 0 mps 609 mmHg 95%
    04:00 +14°C° 0.2 mm 0 mps 609 mmHg 95%
    05:00 +13°C° 0.2 mm 0 mps 609 mmHg 95%
    06:00 +15°C° 0 mm 0 mps 610 mmHg 89%
    07:00 +19°C° 0 mm 1 mps 611 mmHg 83%
    08:00 +20°C° 0 mm 1 mps 612 mmHg 77%
    09:00 +21°C° 0.3 mm 1 mps 612 mmHg 76%
    10:00 +21°C° 0.3 mm 2 mps 612 mmHg 75%
    11:00 +21°C° 0.3 mm 2 mps 612 mmHg 73%
    12:00 +21°C° 1.1 mm 2 mps 611 mmHg 74%
    13:00 +21°C° 1.1 mm 2 mps 611 mmHg 76%
    14:00 +21°C° 1.1 mm 2 mps 610 mmHg 77%
    15:00 +20°C° 1.1 mm 2 mps 610 mmHg 81%
    16:00 +19°C° 1.1 mm 2 mps 610 mmHg 85%
    17:00 +18°C° 1.1 mm 2 mps 609 mmHg 90%
    18:00 +18°C° 0.3 mm 1 mps 610 mmHg 92%
    19:00 +16°C° 0.3 mm 1 mps 610 mmHg 95%
    20:00 +15°C° 0.3 mm 1 mps 610 mmHg 97%
    21:00 +15°C° 0 mm 1 mps 610 mmHg 97%
    22:00 +15°C° 0 mm 1 mps 610 mmHg 97%
    23:00 +13°C° 0 mm 0 mps 611 mmHg 96%

    20 August, Tuesday

    Time Temperature Precipitation Wind Pressure Humidity
    00:00 +13°C° 0 mm 0 mps 610 mmHg 96%
    01:00 +12°C° 0 mm 0 mps 610 mmHg 96%
    02:00 +12°C° 0 mm 0 mps 609 mmHg 96%
    03:00 +12°C° 0 mm 0 mps 609 mmHg 95%
    04:00 +11°C° 0 mm 0 mps 609 mmHg 95%
    05:00 +11°C° 0 mm 0 mps 610 mmHg 95%
    06:00 +13°C° 0 mm 0 mps 610 mmHg 90%
    07:00 +14°C° 0 mm 0 mps 611 mmHg 85%
    08:00 +16°C° 0 mm 0 mps 612 mmHg 80%
    09:00 +20°C° 0 mm 1 mps 612 mmHg 73%
    10:00 +20°C° 0 mm 2 mps 613 mmHg 67%
    11:00 +21°C° 0 mm 3 mps 613 mmHg 61%
    12:00 +21°C° 0.3 mm 3 mps 612 mmHg 64%
    13:00 +21°C° 0.3 mm 3 mps 612 mmHg 67%
    14:00 +20°C° 0.3 mm 3 mps 611 mmHg 70%
    15:00 +19°C° 0.5 mm 2 mps 611 mmHg 75%
    16:00 +18°C° 0.5 mm 2 mps 611 mmHg 81%
    17:00 +18°C° 0.5 mm 1 mps 611 mmHg 86%
    18:00 +16°C° 0.2 mm 1 mps 611 mmHg 89%
    19:00 +15°C° 0.2 mm 1 mps 611 mmHg 92%
    20:00 +14°C° 0.2 mm 1 mps 611 mmHg 96%
    21:00 +14°C° 0.1 mm 1 mps 611 mmHg 96%
    22:00 +14°C° 0.1 mm 1 mps 611 mmHg 96%
    23:00 +14°C° 0.1 mm 1 mps 611 mmHg 96%

    21 August, Wednesday

    Time Temperature Precipitation Wind Pressure Humidity
    00:00 +12°C° 0 mm 0 mps 611 mmHg 95%
    01:00 +12°C° 0 mm 0 mps 610 mmHg 95%
    02:00 +12°C° 0 mm 0 mps 610 mmHg 94%
    03:00 +12°C° 0 mm 0 mps 610 mmHg 94%
    04:00 +13°C° 0 mm 1 mps 610 mmHg 94%
    05:00 +12°C° 0 mm 1 mps 610 mmHg 94%
    06:00 +14°C° 0 mm 1 mps 611 mmHg 88%
    07:00 +15°C° 0 mm 0 mps 612 mmHg 81%
    08:00 +17°C° 0 mm 0 mps 613 mmHg 75%
    09:00 +20°C° 0 mm 1 mps 613 mmHg 70%
    10:00 +21°C° 0 mm 1 mps 613 mmHg 66%
    11:00 +21°C° 0 mm 2 mps 613 mmHg 62%
    12:00 +21°C° 0.8 mm 2 mps 612 mmHg 67%
    13:00 +20°C° 0.8 mm 2 mps 611 mmHg 73%
    14:00 +20°C° 0.8 mm 2 mps 611 mmHg 78%
    15:00 +19°C° 0.7 mm 2 mps 611 mmHg 81%
    16:00 +19°C° 0.7 mm 1 mps 610 mmHg 84%
    17:00 +18°C° 0.7 mm 1 mps 610 mmHg 87%
    18:00 +18°C° 0.4 mm 1 mps 611 mmHg 89%
    19:00 +16°C° 0.4 mm 1 mps 611 mmHg 92%
    20:00 +15°C° 0.4 mm 1 mps 611 mmHg 94%
    21:00 +15°C° 0.3 mm 1 mps 611 mmHg 94%
    22:00 +15°C° 0.3 mm 1 mps 611 mmHg 94%
    23:00 +14°C° 0.3 mm 1 mps 611 mmHg 94%

    22 August, Thursday

    Time Temperature Precipitation Wind Pressure Humidity
    00:00 +14°C° 0 mm 1 mps 611 mmHg 94%
    01:00 +14°C° 0 mm 1 mps 610 mmHg 93%
    02:00 +14°C° 0 mm 1 mps 610 mmHg 93%
    03:00 +13°C° 0 mm 1 mps 610 mmHg 93%
    04:00 +13°C° 0 mm 1 mps 610 mmHg 93%
    05:00 +13°C° 0 mm 1 mps 610 mmHg 93%
    06:00 +15°C° 0 mm 1 mps 611 mmHg 85%
    07:00 +16°C° 0 mm 0 mps 612 mmHg 77%
    08:00 +19°C° 0 mm 0 mps 613 mmHg 70%
    09:00 +21°C° 0.2 mm 1 mps 613 mmHg 68%
    10:00 +22°C° 0.2 mm 1 mps 613 mmHg 67%
    11:00 +23°C° 0.2 mm 2 mps 613 mmHg 65%
    12:00 +21°C° 1.2 mm 2 mps 612 mmHg 68%
    13:00 +21°C° 1.2 mm 2 mps 611 mmHg 72%
    14:00 +21°C° 1.2 mm 2 mps 611 mmHg 75%
    15:00 +20°C° 1 mm 2 mps 610 mmHg 79%
    16:00 +19°C° 1 mm 2 mps 610 mmHg 82%
    17:00 +19°C° 1 mm 1 mps 610 mmHg 85%
    18:00 +18°C° 0.9 mm 1 mps 610 mmHg 89%
    19:00 +16°C° 0.9 mm 1 mps 610 mmHg 92%
    20:00 +14°C° 0.9 mm 0 mps 610 mmHg 95%
    21:00 +15°C° 0.7 mm 1 mps 610 mmHg 94%
    22:00 +15°C° 0.7 mm 1 mps 611 mmHg 94%
    23:00 +15°C° 0.7 mm 1 mps 611 mmHg 93%
    Show more